Location: Beadle
(51.4667°N, 109.0000°W)
Time: 09:48:20
(UTC+00:00)

deb Explorer IX - Pass Details

Date: 02 June 2022
Orbit: 535 x 1068 km, 38.8° (Epoch: 04 July)

Event Time Altitude Azimuth Distance (km) Brightness Sun altitude
Rises 18:53:40 0° 256° (WSW) 3,845 ? 60.5°
Reaches altitude 10° 18:56:56 10° 244° (WSW) 2,863 ? 60.6°
Maximum altitude 19:02:25 25° 193° (SSW) 1,895 ? 60.7°
Drops below altitude 10° 19:07:33 10° 140° (SE) 2,653 ? 60.8°
Sets 19:10:28 0° 128° (SE) 3,509 ? 60.8°
